Change the Weather History Date:

Friday, February 8, 2013

  Actual Average Record
Temperature  
Mean Temperature 29 °F -  
Max Temperature 39 °F 38 °F 62 °F (2015)
Min Temperature 19 °F 18 °F -15 °F (1933)
Degree Days  
Heating Degree Days 36    
Moisture  
Dew Point 24 °F    
Average Humidity 86    
Maximum Humidity 100    
Minimum Humidity 57    
Precipitation  
Precipitation 0.06 in - - ()
Sea Level Pressure  
Sea Level Pressure 29.72 in    
Wind  
Wind Speed 4 mph (SSW)    
Max Wind Speed 20 mph    
Max Gust Speed 30 mph    
Visibility 4 miles    
Events Fog , Snow    
Averages and records for this station are not official NWS values.
T = Trace of Precipitation, MM = Missing Value Source: NWS Daily Summary

Daily Weather History Graph

Daily Weather History Graph

Search for Another Location

Airport or City:

Trip Planner

Search our weather history database for the weather conditions in past years. The results will help you decide how hot, cold, wet, or windy it might be!

Date:

Astronomy

Feb. 08, 2013 Rise Set
Actual Time 7:31 AM MST 5:53 PM MST
Civil Twilight 7:02 AM MST 6:22 PM MST
Nautical Twilight 6:29 AM MST 6:55 PM MST
Astronomical Twilight 5:57 AM MST 7:27 PM MST
Moon 6:03 AM MST (2/8) 4:31 PM MST (2/8)
Length of Visible Light 11h 20m
Length of Day
10h 22m
Waning Crescent, 3% of the Moon is Illuminated
Feb 8
Waning Crescent
Feb 10
New
Feb 17
First Quarter
Feb 25
Full
Mar 4
Last Quarter

Hourly Weather History & Observations

Time (MST) Temp. Windchill Dew Point Humidity Pressure Visibility Wind Dir Wind Speed Gust Speed Precip Events Conditions
12:53 AM 21.9 °F - 18.0 °F 85% 29.90 in 5.0 mi Calm Calm - N/A   Clear
1:53 AM 21.0 °F - 17.1 °F 85% 29.90 in 4.0 mi Calm Calm - N/A   Clear
2:53 AM 21.9 °F - 17.1 °F 82% 29.88 in 4.0 mi Calm Calm - N/A   Haze
3:53 AM 21.9 °F - 16.0 °F 78% 29.86 in 5.0 mi Calm Calm - N/A   Haze
4:53 AM 19.9 °F 13.4 °F 15.1 °F 81% 29.86 in 5.0 mi North 4.6 mph - N/A   Haze
5:53 AM 24.1 °F 16.0 °F 16.0 °F 71% 29.83 in 7.0 mi North 6.9 mph - N/A   Overcast
6:53 AM 21.9 °F 14.5 °F 14.0 °F 72% 29.81 in 8.0 mi WNW 5.8 mph - N/A   Mostly Cloudy
7:53 AM 24.1 °F 16.0 °F 16.0 °F 71% 29.81 in 7.0 mi SSW 6.9 mph - N/A   Overcast
8:53 AM 28.9 °F - 18.0 °F 64% 29.78 in 10.0 mi Calm Calm - N/A   Overcast
9:53 AM 39.0 °F 35.7 °F 28.9 °F 67% 29.72 in 10.0 mi SSE 4.6 mph - N/A   Overcast
10:53 AM 30.0 °F 25.2 °F 19.9 °F 66% 29.74 in 8.0 mi NW 4.6 mph - N/A   Mostly Cloudy
11:53 AM 32.0 °F - 21.9 °F 66% 29.73 in 10.0 mi Calm Calm - N/A   Scattered Clouds
12:53 PM 36.0 °F 32.1 °F 21.9 °F 57% 29.68 in 10.0 mi West 4.6 mph - N/A   Mostly Cloudy
1:53 PM 36.0 °F 30.3 °F 25.0 °F 64% 29.65 in 10.0 mi WNW 6.9 mph - N/A   Partly Cloudy
2:53 PM 32.0 °F 20.1 °F 25.0 °F 75% 29.71 in 9.0 mi SSW 19.6 mph 29.9 mph N/A   Mostly Cloudy
2:59 PM 32.0 °F 21.2 °F 24.8 °F 75% 29.67 in 1.5 mi SSW 16.1 mph 27.6 mph 0.00 in Snow Light Snow
3:02 PM 30.2 °F 18.9 °F 26.6 °F 86% 29.67 in 0.5 mi SSW 16.1 mph 25.3 mph 0.00 in Fog , Snow Light Snow
3:15 PM 30.2 °F 22.6 °F 28.4 °F 93% 29.67 in 0.2 mi South 8.1 mph - 0.01 in Fog , Snow Heavy Snow
3:22 PM 30.2 °F 22.6 °F 30.2 °F 100% 29.68 in 0.2 mi SSW 8.1 mph - 0.02 in Fog , Snow Snow
3:30 PM 30.2 °F 21.3 °F 26.6 °F 86% 29.68 in 0.5 mi SSW 10.4 mph - 0.03 in Fog , Snow Snow
3:44 PM 30.2 °F 24.3 °F 26.6 °F 86% 29.68 in 0.5 mi SW 5.8 mph - 0.03 in Fog , Snow Snow
3:53 PM 30.0 °F 25.2 °F 27.0 °F 88% 29.74 in 0.5 mi South 4.6 mph - 0.04 in Fog , Snow Snow
4:18 PM 30.2 °F 26.7 °F 30.2 °F 100% 29.68 in 1.0 mi ESE 3.5 mph - 0.02 in Snow Light Snow
4:25 PM 30.2 °F - 30.2 °F 100% 29.67 in 1.2 mi Calm Calm - 0.02 in Snow Light Snow
4:36 PM 30.2 °F 24.3 °F 28.4 °F 93% 29.66 in 1.2 mi NNW 5.8 mph - 0.02 in   Overcast
4:53 PM 30.0 °F 24.1 °F 28.9 °F 96% 29.72 in 1.2 mi North 5.8 mph - 0.02 in   Overcast
5:17 PM 30.2 °F 25.4 °F 28.4 °F 93% 29.66 in 2.0 mi NE 4.6 mph - N/A   Overcast
5:37 PM 30.2 °F 21.3 °F 28.4 °F 93% 29.66 in 2.5 mi SW 10.4 mph - N/A   Overcast
5:53 PM 30.9 °F 25.2 °F 28.0 °F 89% 29.70 in 5.0 mi SW 5.8 mph - N/A   Overcast
6:53 PM 30.9 °F - 30.0 °F 96% 29.71 in 4.0 mi Calm Calm - N/A   Scattered Clouds
7:53 PM 30.0 °F - 28.0 °F 92% 29.73 in 4.0 mi Calm Calm - N/A   Partly Cloudy
8:34 PM 28.4 °F 24.6 °F 28.4 °F 100% 29.68 in 2.0 mi ENE 3.5 mph - N/A   Partly Cloudy
8:47 PM 26.6 °F - 26.6 °F 100% 29.68 in 0.8 mi Calm Calm - N/A   Partly Cloudy
8:53 PM 28.9 °F 25.2 °F 27.0 °F 92% 29.72 in 0.5 mi NE 3.5 mph - N/A Fog Light Freezing Fog
9:02 PM 28.4 °F - 26.6 °F 93% 29.68 in 0.5 mi Calm Calm - N/A Fog Light Freezing Fog
9:47 PM 26.6 °F 21.2 °F 24.8 °F 93% 29.68 in 1.0 mi South 4.6 mph - N/A   Mist
9:53 PM 26.1 °F 19.4 °F 25.0 °F 96% 29.69 in 0.8 mi South 5.8 mph - N/A   Mist
10:02 PM 26.6 °F 20.0 °F 24.8 °F 93% 29.67 in 0.5 mi South 5.8 mph - N/A Fog Light Freezing Fog
10:09 PM 26.6 °F 20.0 °F 24.8 °F 93% 29.68 in 0.8 mi SSE 5.8 mph - N/A   Clear
10:16 PM 24.8 °F 16.9 °F 24.8 °F 100% 29.68 in 2.5 mi South 6.9 mph - N/A   Clear
10:23 PM 24.8 °F 16.1 °F 23.0 °F 93% 29.68 in 4.0 mi SSE 8.1 mph - N/A   Clear
10:53 PM 28.0 °F 19.3 °F 26.1 °F 92% 29.71 in 9.0 mi SSE 9.2 mph - N/A   Mostly Cloudy
11:53 PM 27.0 °F - 24.1 °F 89% 29.71 in - North - - N/A   Unknown